Weather History for LEBB - October, 2012

Change the Weather History Date:

Tuesday, October 2, 2012

  Actual Average Record
Temperature  
Mean Temperature 62 °F -  
Max Temperature 77 °F 69 °F 93 °F (2001)
Min Temperature 48 °F 52 °F 48 °F (2012)
Degree Days  
Heating Degree Days 2    
Growing Degree Days 12 (Base 50)    
Moisture  
Dew Point 52 °F    
Average Humidity 72    
Maximum Humidity 93    
Minimum Humidity 39    
Precipitation  
Precipitation 0.00 in - - ()
Sea Level Pressure  
Sea Level Pressure 30.16 in    
Wind  
Wind Speed 2 mph ()    
Max Wind Speed 10 mph    
Max Gust Speed -    
Averages and records for this station are not official NWS values.
T = Trace of Precipitation, MM = Missing Value Source: Averaged Metar Reports

Daily Weather History Graph

Daily Weather History Graph

Search for Another Location

Airport or City:

Trip Planner

Search our weather history database for the weather conditions in past years. The results will help you decide how hot, cold, wet, or windy it might be!

Date:

Astronomy

Oct. 02, 2012 Rise Set
Actual Time 8:10 AM CEST 7:50 PM CEST
Civil Twilight 7:42 AM CEST 8:18 PM CEST
Nautical Twilight 7:08 AM CEST 8:51 PM CEST
Astronomical Twilight 6:35 AM CEST 9:25 PM CEST
Moon 8:48 PM CEST (10/2) 10:29 AM CEST (10/2)
Length of Visible Light 12h 36m
Length of Day
11h 40m
Waning Gibbous, 95% of the Moon is Illuminated
Oct 2
Waning Gibbous
Oct 8
Last Quarter
Oct 15
New
Oct 22
First Quarter
Oct 29
Full

Hourly Weather History & Observations

Time (CEST) Temp. Dew Point Humidity Pressure Visibility Wind Dir Wind Speed Gust Speed Precip Events Conditions
5:00 AM 50.0 °F 46.4 °F 87% 30.18 in - Variable 1.2 mph - N/A   Clear
5:30 AM 48.2 °F 46.4 °F 93% 30.18 in - Calm Calm - N/A   Clear
6:00 AM 48.2 °F 46.4 °F 93% 30.18 in - Variable 1.2 mph - N/A   Clear
6:30 AM 48.2 °F 46.4 °F 93% 30.18 in - Variable 2.3 mph - N/A   Clear
7:30 AM 48.2 °F 46.4 °F 93% 30.18 in - Variable 1.2 mph - N/A   Clear
8:00 AM 48.2 °F 46.4 °F 93% 30.18 in - Variable 1.2 mph - N/A   Clear
8:30 AM 48.2 °F 46.4 °F 93% 30.18 in - Variable 2.3 mph - N/A   Clear
9:00 AM 50.0 °F 46.4 °F 87% 30.18 in - Variable 1.2 mph - N/A   Clear
9:30 AM 50.0 °F 46.4 °F 87% 30.18 in - Variable 1.2 mph - N/A   Clear
10:00 AM 53.6 °F 48.2 °F 82% 30.18 in - ESE 4.6 mph - N/A   Clear
10:30 AM 55.4 °F 50.0 °F 82% 30.18 in - ESE 4.6 mph - N/A   Clear
11:00 AM 59.0 °F 50.0 °F 72% 30.18 in - ESE 3.5 mph - N/A   Clear
11:30 AM 62.6 °F 50.0 °F 63% 30.18 in - Variable 2.3 mph - N/A   Clear
12:00 PM 66.2 °F 51.8 °F 60% 30.18 in - Variable 1.2 mph - N/A   Clear
12:30 PM 68.0 °F 50.0 °F 52% 30.18 in - Variable 1.2 mph - N/A   Clear
1:00 PM 71.6 °F 51.8 °F 50% 30.15 in - Calm Calm - N/A   Clear
1:30 PM 73.4 °F 51.8 °F 47% 30.15 in - Calm Calm - N/A   Clear
2:00 PM 75.2 °F 51.8 °F 44% 30.15 in - Variable 1.2 mph - N/A   Clear
2:30 PM 75.2 °F 51.8 °F 44% 30.15 in - Calm Calm - N/A   Clear
3:00 PM 75.2 °F 50.0 °F 41% 30.12 in - Variable 2.3 mph - N/A   Clear
3:30 PM 77.0 °F 50.0 °F 39% 30.12 in - NW 3.5 mph - N/A   Clear
4:00 PM 75.2 °F 51.8 °F 44% 30.12 in - NW 10.4 mph - N/A   Clear
5:00 PM 71.6 °F 55.4 °F 57% 30.15 in - NNW 10.4 mph - N/A   Clear
5:30 PM 69.8 °F 55.4 °F 60% 30.15 in - NW 10.4 mph - N/A   Clear
6:00 PM 69.8 °F 55.4 °F 60% 30.15 in - NNW 8.1 mph - N/A   Clear
7:00 PM 68.0 °F 57.2 °F 68% 30.15 in - WNW 3.5 mph - N/A   Clear
7:30 PM 68.0 °F 57.2 °F 68% 30.15 in - NNW 3.5 mph - N/A   Clear
8:00 PM 66.2 °F 57.2 °F 73% 30.15 in - Variable 2.3 mph - N/A   Clear
8:30 PM 64.4 °F 57.2 °F 77% 30.15 in - Calm Calm - N/A   Clear
9:00 PM 60.8 °F 57.2 °F 88% 30.15 in - Calm Calm - N/A   Clear
9:30 PM 60.8 °F 55.4 °F 82% 30.18 in - Calm Calm - N/A   Clear
10:00 PM 60.8 °F 55.4 °F 82% 30.18 in - Variable 1.2 mph - N/A   Clear
10:30 PM 59.0 °F 55.4 °F 88% 30.15 in - East 4.6 mph - N/A   Clear
11:00 PM 59.0 °F 55.4 °F 88% 30.15 in - Variable 2.3 mph - N/A   Clear
11:30 PM 57.2 °F 53.6 °F 88% 30.15 in - ESE 3.5 mph - N/A   Clear